User: anonymous   Login
Location: Estes Par
(40.3770°N, 105.5210°W)
Time: 10:02:25
(UTC-07:00)
Language:

XW-2D - Orbit

View from above orbital plane
View from above orbital plane
View from above satellite
View from above satellite

Ground track
Ground track

The orbit data is extracted from the following two-line orbital elements,

1 40907U 15049J   18349.53880416  .00000913  00000-0  51408-4 0  9994
2 40907  97.4610 349.4569 0015824 115.7428   0.6016 15.15603499178964
Epoch (UTC): 15 December 2018 12:55:52
Eccentricity: 0.0015824
inclination: 97.4610°
perigee height: 508 km
apogee height: 530 km
right ascension of ascending node: 349.4569°
argument of perigee: 115.7428°
revolutions per day: 15.15603499
mean anomaly at epoch: 0.6016°
orbit number at epoch: 17896

The dashed part of the orbit path shows where the satellite is in the earth's shadow,  

DLR